Вернуться в каталог

FREGAT R/B

АктивенHEO
NORAD 44553·ROCKET BODY·🇷🇺 Russia

Запущен Sep 26, 2019 с Plesetsk Cosmodrome

Loading…

Ближайшие Пролёты (ближайшие 24 часа)

TLE

СвежийSource: Space-Track

Эпоха: Sep 13, 2026, 02:17 UTC

1 44553U 19065B   26256.09537979 -.00000935  00000-0  00000+0 0  9999
2 44553  63.3334 144.2291 6761537 260.4991  23.2551  2.01544382 51276

Отслеживайте FREGAT R/B в реальном времени с AllMySat

Download on the App Store